Weather History for Mineola, TX

Change the Weather History Date:

Friday, July 5, 2013

  Actual Average (KTYR) Record (KTYR)
Temperature  
Mean Temperature 78 °F 82 °F  
Max Temperature 93 °F 91 °F 104 °F (1909)
Min Temperature 62 °F 73 °F 54 °F (1968)
Degree Days  
Heating Degree Days 0 0  
Month to date heating degree days 0  
Since 1 June heating degree days 0  
Since 1 July heating degree days 0  
Cooling Degree Days 12 17  
Month to date cooling degree days 85  
Year to date cooling degree days 887  
Since 1 June cooling degree days 518  
Growing Degree Days 28 (Base 50)    
Moisture  
Dew Point 63 °F    
Average Humidity 63    
Maximum Humidity 100    
Minimum Humidity 30    
Precipitation  
Precipitation 0.00 in 0.12 in 2.61 in (2007)
Month to date precipitation 0.61  
Year to date precipitation 24.37  
Snow  
Snow 0.00 in - - ()
Month to date snowfall  
Since 1 June snowfall  
Since 1 July snowfall  
Snow Depth -    
Sea Level Pressure  
Sea Level Pressure 29.98 in    
Wind  
Wind Speed 1 mph (SE)    
Max Wind Speed 7 mph    
Max Gust Speed -    
Visibility 8 miles    
Events      
T = Trace of Precipitation, MM = Missing Value Source: NWS Daily Summary

Daily Weather History Graph

Daily Weather History Graph

Search for Another Location

Airport:

Trip Planner

Search our weather history database for the weather conditions in past years. The results will help you decide how hot, cold, wet, or windy it might be!

Date:

Astronomy

Jul. 05, 2013 Rise Set
Actual Time 6:19 AM CDT 8:33 PM CDT
Civil Twilight 5:51 AM CDT 9:01 PM CDT
Nautical Twilight 5:16 AM CDT 9:36 PM CDT
Astronomical Twilight 4:38 AM CDT 10:13 PM CDT
Moon 4:16 AM CDT (7/5) 6:31 PM CDT (7/5)
Length of Visible Light 15h 10m
Length of Day
14h 13m
Waning Crescent, 6% of the Moon is Illuminated
Jul 5
Waning Crescent
Jul 8
New
Jul 15
First Quarter
Jul 22
Full
Jul 29
Last Quarter

Hourly Weather History & Observations

Time (CDT) Temp. Heat Index Dew Point Humidity Pressure Visibility Wind Dir Wind Speed Gust Speed Precip Events Conditions
12:15 AM 68.0 °F - 64.4 °F 88% 29.99 in 7.0 mi Calm Calm - N/A   Unknown
12:35 AM 68.0 °F - 64.4 °F 88% 29.99 in 8.0 mi Calm Calm - N/A   Unknown
12:55 AM 68.0 °F - 64.4 °F 88% 29.99 in 8.0 mi Calm Calm - N/A   Unknown
1:15 AM 66.2 °F - 64.4 °F 94% 29.99 in 6.0 mi Calm Calm - N/A   Mist
1:35 AM 66.2 °F - 64.4 °F 94% 30.00 in 6.0 mi Calm Calm - N/A   Mist
1:55 AM 66.2 °F - 64.4 °F 94% 29.99 in 7.0 mi Calm Calm - N/A   Unknown
2:15 AM 66.2 °F - 64.4 °F 94% 29.99 in 5.0 mi Calm Calm - N/A   Mist
2:35 AM 64.4 °F - 64.4 °F 100% 29.99 in 5.0 mi Calm Calm - N/A   Mist
2:55 AM 64.4 °F - 64.4 °F 100% 29.98 in 5.0 mi Calm Calm - N/A   Mist
3:15 AM 64.4 °F - 64.4 °F 100% 29.98 in 4.0 mi Calm Calm - N/A   Mist
3:35 AM 64.4 °F - 64.4 °F 100% 29.98 in 3.0 mi Calm Calm - N/A   Mist
3:55 AM 64.4 °F - 62.6 °F 94% 29.98 in 5.0 mi Calm Calm - N/A   Mist
4:15 AM 64.4 °F - 62.6 °F 94% 29.98 in 5.0 mi Calm Calm - N/A   Mist
4:35 AM 64.4 °F - 64.4 °F 100% 29.98 in 5.0 mi Calm Calm - N/A   Mist
4:55 AM 64.4 °F - 62.6 °F 94% 29.98 in 5.0 mi Calm Calm - N/A   Mist
5:15 AM 64.4 °F - 62.6 °F 94% 29.99 in 5.0 mi Calm Calm - N/A   Mist
5:35 AM 62.6 °F - 62.6 °F 100% 29.99 in 4.0 mi Calm Calm - N/A   Mist
5:55 AM 62.6 °F - 62.6 °F 100% 29.99 in 4.0 mi Calm Calm - N/A   Mist
6:15 AM 64.4 °F - 62.6 °F 94% 30.00 in 3.0 mi Calm Calm - N/A   Mist
6:35 AM 62.6 °F - 62.6 °F 100% 30.00 in 2.5 mi Calm Calm - N/A   Mist
6:55 AM 64.4 °F - 62.6 °F 94% 30.00 in 3.0 mi Calm Calm - N/A   Mist
7:15 AM 64.4 °F - 64.4 °F 100% 30.02 in 5.0 mi Calm Calm - N/A   Mist
7:35 AM 66.2 °F - 64.4 °F 94% 30.02 in 5.0 mi Calm Calm - N/A   Mist
7:55 AM 69.8 °F - 66.2 °F 88% 30.02 in 7.0 mi Calm Calm - N/A   Unknown
8:15 AM 73.4 °F - 66.2 °F 78% 30.03 in 8.0 mi Calm Calm - N/A   Unknown
8:35 AM 75.2 °F - 66.2 °F 73% 30.04 in 7.0 mi Calm Calm - N/A   Unknown
8:55 AM 77.0 °F - 66.2 °F 69% 30.04 in 8.0 mi Calm Calm - N/A   Unknown
9:15 AM 78.8 °F - 66.2 °F 65% 30.04 in 8.0 mi Calm Calm - N/A   Unknown
9:35 AM 80.6 °F 82.3 °F 64.4 °F 58% 30.04 in 9.0 mi South 4.6 mph - N/A   Unknown
9:55 AM 82.4 °F 83.9 °F 64.4 °F 54% 30.04 in 8.0 mi Calm Calm - N/A   Unknown
10:15 AM 84.2 °F 86.6 °F 66.2 °F 55% 30.03 in 10.0 mi SE 3.5 mph - N/A   Unknown
10:35 AM 84.2 °F 86.6 °F 66.2 °F 55% 30.03 in 10.0 mi Calm Calm - N/A   Unknown
10:55 AM 86.0 °F 88.2 °F 66.2 °F 51% 30.02 in 10.0 mi Calm Calm - N/A   Unknown
11:15 AM 86.0 °F 88.2 °F 66.2 °F 51% 30.02 in 9.0 mi Calm Calm - N/A   Unknown
11:35 AM 87.8 °F 90.4 °F 66.2 °F 49% 30.01 in 10.0 mi SE 3.5 mph - N/A   Unknown
11:55 AM 87.8 °F 89.4 °F 64.4 °F 46% 30.01 in 9.0 mi SW 4.6 mph - N/A   Unknown
12:15 PM 89.6 °F 91.1 °F 64.4 °F 43% 30.01 in 9.0 mi SSW 3.5 mph - N/A   Unknown
12:35 PM 89.6 °F 91.1 °F 64.4 °F 43% 30.01 in 10.0 mi NW 3.5 mph - N/A   Unknown
12:55 PM 89.6 °F 90.1 °F 62.6 °F 40% 30.01 in 9.0 mi WNW 6.9 mph - N/A   Unknown
1:15 PM 91.4 °F 92.1 °F 62.6 °F 38% 30.00 in 9.0 mi Calm Calm - N/A   Unknown
1:35 PM 91.4 °F 92.1 °F 62.6 °F 38% 29.99 in 10.0 mi NNE 3.5 mph - N/A   Unknown
1:55 PM 91.4 °F 92.1 °F 62.6 °F 38% 29.99 in 10.0 mi Calm Calm - N/A   Unknown
2:15 PM 91.4 °F 91.4 °F 60.8 °F 36% 29.98 in 10.0 mi Calm Calm - N/A   Unknown
2:35 PM 93.2 °F 92.6 °F 59.0 °F 32% 29.98 in 9.0 mi NE 3.5 mph - N/A   Unknown
2:55 PM 93.2 °F 91.9 °F 57.2 °F 30% 29.98 in 9.0 mi Calm Calm - N/A   Unknown
3:15 PM 93.2 °F 92.6 °F 59.0 °F 32% 29.97 in 10.0 mi Calm Calm - N/A   Unknown
3:35 PM 93.2 °F 92.6 °F 59.0 °F 32% 29.96 in 10.0 mi Calm Calm - N/A   Unknown
3:55 PM 91.4 °F 91.4 °F 60.8 °F 36% 29.96 in 9.0 mi ESE 4.6 mph - N/A   Unknown
4:15 PM 91.4 °F 91.4 °F 60.8 °F 36% 29.94 in 9.0 mi ESE 3.5 mph - N/A   Unknown
4:35 PM 93.2 °F 93.3 °F 60.8 °F 34% 29.93 in 10.0 mi SE 5.8 mph - N/A   Unknown
4:55 PM 91.4 °F 91.4 °F 60.8 °F 36% 29.93 in 10.0 mi ENE 4.6 mph - N/A   Unknown
5:15 PM 91.4 °F 90.7 °F 59.0 °F 34% 29.92 in 10.0 mi SE 4.6 mph - N/A   Unknown
5:35 PM 93.2 °F 91.9 °F 57.2 °F 30% 29.91 in 10.0 mi Calm Calm - N/A   Unknown
5:55 PM 93.2 °F 91.9 °F 57.2 °F 30% 29.91 in 10.0 mi SE 3.5 mph - N/A   Unknown
6:15 PM 93.2 °F 92.6 °F 59.0 °F 32% 29.91 in 10.0 mi ENE 3.5 mph - N/A   Unknown
6:35 PM 91.4 °F 91.4 °F 60.8 °F 36% 29.91 in 10.0 mi Calm Calm - N/A   Unknown
6:55 PM 91.4 °F 91.4 °F 60.8 °F 36% 29.91 in 10.0 mi Calm Calm - N/A   Unknown
7:15 PM 91.4 °F 90.7 °F 59.0 °F 34% 29.91 in 10.0 mi Calm Calm - N/A   Unknown
7:35 PM 89.6 °F 89.5 °F 60.8 °F 38% 29.91 in 10.0 mi Calm Calm - N/A   Unknown
7:55 PM 87.8 °F 87.6 °F 60.8 °F 40% 29.91 in 10.0 mi Calm Calm - N/A   Unknown
8:15 PM 86.0 °F 86.6 °F 62.6 °F 45% 29.92 in 10.0 mi Calm Calm - N/A   Unknown
8:35 PM 82.4 °F 83.4 °F 62.6 °F 51% 29.92 in 10.0 mi Calm Calm - N/A   Unknown
8:55 PM 82.4 °F 83.4 °F 62.6 °F 51% 29.92 in 10.0 mi Calm Calm - N/A   Unknown
9:15 PM 80.6 °F 81.8 °F 62.6 °F 54% 29.92 in 10.0 mi Calm Calm - N/A   Unknown
9:35 PM 80.6 °F 81.8 °F 62.6 °F 54% 29.93 in 10.0 mi Calm Calm - N/A   Unknown
9:55 PM 78.8 °F - 62.6 °F 57% 29.94 in 10.0 mi Calm Calm - N/A   Unknown
10:15 PM 78.8 °F - 62.6 °F 57% 29.95 in 10.0 mi Calm Calm - N/A   Unknown
10:35 PM 78.8 °F - 60.8 °F 54% 29.95 in 10.0 mi Calm Calm - N/A   Unknown
10:55 PM 78.8 °F - 62.6 °F 57% 29.95 in 10.0 mi Calm Calm - N/A   Unknown
11:15 PM 77.0 °F - 60.8 °F 57% 29.96 in 10.0 mi Calm Calm - N/A   Unknown
11:35 PM 75.2 °F - 60.8 °F 61% 29.96 in 10.0 mi Calm Calm - N/A   Unknown
11:55 PM 75.2 °F - 60.8 °F 61% 29.96 in 10.0 mi Calm Calm - N/A   Unknown